When you browse on this site, cookies collect data to enhance your experience and personalize the content and advertising you see.
Visit our Privacy Policy to learn more. By continuing to use the site, you agree to this use of cookies and data.
  • In Lithuania
  • List of Countries
  • For 7 days
  • Water Temperature
  • Satellite Maps
  • Weather Map
  • Weather Widgets
  • user-avatar
    Login

    Hourly Weather Batina

    Today, 27 May, Monday

    Time Temperature Precipitation Wind Pressure Humidity
    00:00 +10°C° 0 mm 3 mps 667 mmHg 80%
    01:00 +10°C° 0 mm 3 mps 667 mmHg 81%
    02:00 +9°C° 0 mm 3 mps 666 mmHg 82%
    03:00 +9°C° 0 mm 3 mps 666 mmHg 83%
    04:00 +10°C° 0 mm 3 mps 666 mmHg 81%
    05:00 +10°C° 0 mm 3 mps 667 mmHg 78%
    06:00 +10°C° 0 mm 3 mps 667 mmHg 75%
    07:00 +12°C° 0 mm 4 mps 667 mmHg 71%
    08:00 +13°C° 0 mm 4 mps 668 mmHg 66%
    09:00 +14°C° 0 mm 5 mps 669 mmHg 61%
    10:00 +15°C° 0 mm 4 mps 669 mmHg 60%
    11:00 +15°C° 0 mm 4 mps 669 mmHg 59%
    12:00 +15°C° 0 mm 4 mps 669 mmHg 58%
    13:00 +17°C° 0 mm 4 mps 669 mmHg 55%
    14:00 +17°C° 0 mm 4 mps 669 mmHg 53%
    15:00 +18°C° 0 mm 4 mps 669 mmHg 51%
    16:00 +17°C° 0 mm 4 mps 669 mmHg 52%
    17:00 +17°C° 0 mm 3 mps 669 mmHg 53%
    18:00 +17°C° 0 mm 3 mps 669 mmHg 54%
    19:00 +16°C° 0 mm 2 mps 669 mmHg 59%
    20:00 +15°C° 0 mm 2 mps 669 mmHg 63%
    21:00 +14°C° 0 mm 1 mps 669 mmHg 67%
    22:00 +14°C° 0 mm 1 mps 669 mmHg 68%
    23:00 +13°C° 0 mm 1 mps 669 mmHg 70%

    Tomorrow, 28 May, Tuesday

    Time Temperature Precipitation Wind Pressure Humidity
    00:00 +13°C° 0 mm 1 mps 669 mmHg 71%
    01:00 +13°C° 0 mm 1 mps 668 mmHg 70%
    02:00 +13°C° 0 mm 1 mps 668 mmHg 70%
    03:00 +13°C° 0 mm 1 mps 668 mmHg 70%
    04:00 +14°C° 0 mm 2 mps 669 mmHg 66%
    05:00 +15°C° 0 mm 2 mps 669 mmHg 62%
    06:00 +16°C° 0 mm 2 mps 669 mmHg 58%
    07:00 +18°C° 0 mm 3 mps 670 mmHg 52%
    08:00 +19°C° 0 mm 5 mps 671 mmHg 46%
    09:00 +21°C° 0 mm 6 mps 671 mmHg 40%
    10:00 +22°C° 0 mm 6 mps 671 mmHg 38%
    11:00 +22°C° 0 mm 6 mps 671 mmHg 36%
    12:00 +23°C° 0 mm 7 mps 671 mmHg 34%
    13:00 +23°C° 0 mm 6 mps 671 mmHg 34%
    14:00 +23°C° 0 mm 6 mps 671 mmHg 34%
    15:00 +25°C° 0 mm 5 mps 671 mmHg 34%
    16:00 +23°C° 0 mm 5 mps 671 mmHg 35%
    17:00 +23°C° 0 mm 4 mps 671 mmHg 36%
    18:00 +22°C° 0 mm 4 mps 671 mmHg 38%
    19:00 +21°C° 0 mm 3 mps 671 mmHg 43%
    20:00 +21°C° 0 mm 1 mps 671 mmHg 48%
    21:00 +18°C° 0 mm 0 mps 671 mmHg 53%
    22:00 +18°C° 0 mm 0 mps 671 mmHg 53%
    23:00 +19°C° 0 mm 1 mps 671 mmHg 54%

    Day after tomorrow, 29 May, Wednesday

    Time Temperature Precipitation Wind Pressure Humidity
    00:00 +19°C° 0 mm 1 mps 670 mmHg 54%
    01:00 +18°C° 0 mm 1 mps 670 mmHg 53%
    02:00 +18°C° 0 mm 1 mps 670 mmHg 53%
    03:00 +17°C° 0 mm 2 mps 670 mmHg 53%
    04:00 +17°C° 0 mm 2 mps 671 mmHg 51%
    05:00 +19°C° 0 mm 1 mps 671 mmHg 50%
    06:00 +20°C° 0 mm 1 mps 671 mmHg 49%
    07:00 +21°C° 0 mm 1 mps 672 mmHg 46%
    08:00 +21°C° 0 mm 2 mps 672 mmHg 43%
    09:00 +23°C° 0 mm 2 mps 673 mmHg 40%
    10:00 +23°C° 0 mm 2 mps 673 mmHg 38%
    11:00 +24°C° 0 mm 3 mps 673 mmHg 35%
    12:00 +25°C° 0 mm 3 mps 673 mmHg 33%
    13:00 +25°C° 0 mm 3 mps 673 mmHg 34%
    14:00 +25°C° 0 mm 3 mps 673 mmHg 35%
    15:00 +25°C° 0 mm 4 mps 672 mmHg 36%
    16:00 +23°C° 0 mm 4 mps 672 mmHg 45%
    17:00 +21°C° 0 mm 5 mps 672 mmHg 54%
    18:00 +20°C° 0 mm 5 mps 672 mmHg 63%
    19:00 +19°C° 0 mm 5 mps 672 mmHg 68%
    20:00 +17°C° 0 mm 5 mps 673 mmHg 73%
    21:00 +15°C° 0 mm 4 mps 673 mmHg 77%
    22:00 +15°C° 0 mm 4 mps 673 mmHg 79%
    23:00 +14°C° 0 mm 3 mps 673 mmHg 80%

    30 May, Thursday

    Time Temperature Precipitation Wind Pressure Humidity
    00:00 +14°C° 0 mm 3 mps 673 mmHg 82%
    01:00 +13°C° 0 mm 3 mps 673 mmHg 83%
    02:00 +13°C° 0 mm 3 mps 673 mmHg 83%
    03:00 +12°C° 0 mm 3 mps 673 mmHg 84%
    04:00 +12°C° 0 mm 3 mps 673 mmHg 81%
    05:00 +13°C° 0 mm 3 mps 673 mmHg 78%
    06:00 +14°C° 0 mm 2 mps 674 mmHg 75%
    07:00 +15°C° 0 mm 2 mps 674 mmHg 69%
    08:00 +17°C° 0 mm 2 mps 675 mmHg 62%
    09:00 +18°C° 0 mm 2 mps 675 mmHg 55%
    10:00 +19°C° 0 mm 2 mps 675 mmHg 50%
    11:00 +20°C° 0 mm 3 mps 676 mmHg 46%
    12:00 +22°C° 0 mm 3 mps 676 mmHg 41%
    13:00 +22°C° 0 mm 3 mps 676 mmHg 38%
    14:00 +23°C° 0 mm 4 mps 676 mmHg 34%
    15:00 +23°C° 0 mm 4 mps 675 mmHg 31%
    16:00 +22°C° 0 mm 5 mps 675 mmHg 34%
    17:00 +21°C° 0 mm 5 mps 675 mmHg 37%
    18:00 +20°C° 0 mm 5 mps 675 mmHg 40%
    19:00 +19°C° 0 mm 5 mps 675 mmHg 46%
    20:00 +17°C° 0 mm 4 mps 675 mmHg 53%
    21:00 +16°C° 0 mm 3 mps 675 mmHg 60%
    22:00 +16°C° 0 mm 3 mps 675 mmHg 62%
    23:00 +15°C° 0 mm 2 mps 674 mmHg 65%

    31 May, Friday

    Time Temperature Precipitation Wind Pressure Humidity
    00:00 +15°C° 0 mm 2 mps 674 mmHg 68%
    01:00 +14°C° 0 mm 2 mps 674 mmHg 69%
    02:00 +14°C° 0 mm 2 mps 674 mmHg 69%
    03:00 +13°C° 0 mm 1 mps 674 mmHg 70%
    04:00 +14°C° 0 mm 1 mps 674 mmHg 66%
    05:00 +14°C° 0 mm 1 mps 675 mmHg 61%
    06:00 +15°C° 0 mm 1 mps 675 mmHg 57%
    07:00 +16°C° 0 mm 1 mps 675 mmHg 52%
    08:00 +17°C° 0 mm 2 mps 676 mmHg 46%
    09:00 +18°C° 0 mm 2 mps 676 mmHg 41%
    10:00 +20°C° 0 mm 3 mps 676 mmHg 39%
    11:00 +21°C° 0 mm 4 mps 676 mmHg 36%
    12:00 +22°C° 0 mm 5 mps 676 mmHg 34%
    13:00 +22°C° 0 mm 6 mps 676 mmHg 35%
    14:00 +22°C° 0 mm 6 mps 675 mmHg 36%
    15:00 +23°C° 0 mm 7 mps 675 mmHg 37%
    16:00 +22°C° 0 mm 7 mps 675 mmHg 41%
    17:00 +21°C° 0 mm 6 mps 674 mmHg 45%
    18:00 +19°C° 0 mm 6 mps 674 mmHg 49%
    19:00 +17°C° 0 mm 5 mps 674 mmHg 54%
    20:00 +17°C° 0 mm 4 mps 674 mmHg 60%
    21:00 +16°C° 0 mm 3 mps 674 mmHg 65%
    22:00 +16°C° 0 mm 3 mps 674 mmHg 68%
    23:00 +15°C° 0 mm 2 mps 674 mmHg 71%

    1 June, Saturday

    Time Temperature Precipitation Wind Pressure Humidity
    00:00 +14°C° 0 mm 2 mps 673 mmHg 74%
    01:00 +14°C° 0 mm 2 mps 673 mmHg 72%
    02:00 +14°C° 0 mm 2 mps 673 mmHg 70%
    03:00 +13°C° 0 mm 2 mps 673 mmHg 68%
    04:00 +14°C° 0 mm 1 mps 673 mmHg 61%
    05:00 +15°C° 0 mm 1 mps 673 mmHg 53%
    06:00 +16°C° 0 mm 1 mps 674 mmHg 46%
    07:00 +17°C° 0 mm 2 mps 674 mmHg 44%
    08:00 +18°C° 0 mm 2 mps 675 mmHg 42%
    09:00 +19°C° 0 mm 3 mps 675 mmHg 41%
    10:00 +21°C° 0 mm 4 mps 675 mmHg 39%
    11:00 +22°C° 0 mm 5 mps 675 mmHg 37%
    12:00 +23°C° 0 mm 6 mps 675 mmHg 35%
    13:00 +23°C° 0 mm 6 mps 675 mmHg 34%
    14:00 +24°C° 0 mm 6 mps 674 mmHg 33%
    15:00 +24°C° 0 mm 7 mps 674 mmHg 33%
    16:00 +23°C° 0 mm 6 mps 674 mmHg 35%
    17:00 +22°C° 0 mm 6 mps 673 mmHg 38%
    18:00 +21°C° 0 mm 6 mps 673 mmHg 40%
    19:00 +20°C° 0 mm 4 mps 673 mmHg 43%
    20:00 +18°C° 0 mm 3 mps 673 mmHg 47%
    21:00 +17°C° 0 mm 2 mps 673 mmHg 51%
    22:00 +16°C° 0 mm 2 mps 673 mmHg 53%
    23:00 +16°C° 0 mm 1 mps 672 mmHg 55%
    Show more